| time (UTC) | temp F | wind direction | speed MPH | gust MPH | rain 1hr in | rain 24hr in | rain mn in | humidity % | barometer mb |
| 20260504223515 | 49 | 0.0 | 0.0 | 0.00 | 0.00 | 0.00 | 91 | 1017.3 | |
| 20260504222515 | 49 | 0.0 | 0.0 | 0.00 | 0.00 | 0.00 | 91 | 1017.4 | |
| 20260504221515 | 49 | 0.0 | 0.0 | 0.00 | 0.00 | 0.00 | 90 | 1017.4 | |
| 20260504220535 | 50 | 0.0 | 0.0 | 0.00 | 0.00 | 0.00 | 89 | 1017.6 | |
| 20260504215516 | 50 | 0.0 | 0.0 | 0.00 | 0.00 | 0.00 | 89 | 1017.5 | |
| 20260504214555 | 51 | 0.0 | 0.0 | 0.00 | 0.00 | 0.00 | 88 | 1017.5 | |
| 20260504213516 | 51 | 0.0 | 0.0 | 0.00 | 0.00 | 0.00 | 88 | 1017.5 | |
| 20260504212516 | 51 | 0.0 | 0.0 | 0.00 | 0.00 | 0.00 | 87 | 1017.3 | |
| 20260504211516 | 52 | 0.0 | 0.0 | 0.00 | 0.00 | 0.00 | 87 | 1017.3 | |
| 20260504210515 | 52 | 0.0 | 0.0 | 0.00 | 0.00 | 0.00 | 87 | 1017.3 | |
| 20260504205516 | 52 | 0.0 | 0.0 | 0.00 | 0.00 | 0.00 | 87 | 1017.5 | |
| 20260504204515 | 52 | 0.0 | 0.0 | 0.00 | 0.00 | 0.00 | 87 | 1017.4 | |
| 20260504203515 | 52 | 0.0 | 0.0 | 0.00 | 0.00 | 0.00 | 87 | 1017.4 | |
| 20260504202515 | 52 | 0.0 | 0.0 | 0.00 | 0.00 | 0.00 | 87 | 1017.4 | |
| 20260504201515 | 52 | 0.0 | 0.0 | 0.00 | 0.00 | 0.00 | 87 | 1017.4 | |
| 20260504200515 | 52 | 0.0 | 2.0 | 0.00 | 0.00 | 0.00 | 87 | 1017.4 | |
| 20260504195515 | 53 | 0 | 1.0 | 2.0 | 0.00 | 0.00 | 0.00 | 87 | 1017.4 |
| 20260504194515 | 53 | 0.0 | 1.0 | 0.00 | 0.00 | 0.00 | 85 | 1017.3 | |
| 20260504193537 | 53 | 0.0 | 1.0 | 0.00 | 0.00 | 0.00 | 85 | 1017.3 | |
| 20260504192517 | 53 | 0.0 | 2.0 | 0.00 | 0.00 | 0.00 | 84 | 1017.1 | |
| 20260504191517 | 53 | 0.0 | 1.0 | 0.00 | 0.00 | 0.00 | 84 | 1017.1 | |
| 20260504190517 | 53 | 45 | 2.0 | 3.0 | 0.00 | 0.00 | 0.00 | 85 | 1017.0 |
| 20260504185517 | 53 | 45 | 1.0 | 3.0 | 0.00 | 0.00 | 0.00 | 84 | 1017.0 |
| 20260504184517 | 53 | 45 | 2.0 | 3.0 | 0.00 | 0.00 | 0.00 | 84 | 1016.9 |
| 20260504183517 | 54 | 45 | 2.0 | 4.0 | 0.00 | 0.00 | 0.00 | 83 | 1016.8 |
| 20260504182517 | 54 | 45 | 2.0 | 4.0 | 0.00 | 0.00 | 0.00 | 84 | 1016.9 |
| 20260504181517 | 54 | 45 | 1.0 | 3.0 | 0.00 | 0.00 | 0.00 | 83 | 1016.8 |
| 20260504180517 | 54 | 0.0 | 2.0 | 0.00 | 0.00 | 0.00 | 83 | 1016.8 | |
| 20260504175517 | 54 | 68 | 1.0 | 2.0 | 0.00 | 0.00 | 0.00 | 82 | 1016.8 |
| 20260504174517 | 54 | 0.0 | 1.0 | 0.00 | 0.00 | 0.00 | 81 | 1016.9 | |
| 20260504173517 | 54 | 0.0 | 2.0 | 0.00 | 0.00 | 0.00 | 82 | 1016.9 | |
| 20260504172517 | 54 | 0.0 | 4.0 | 0.00 | 0.00 | 0.00 | 82 | 1017.0 | |
| 20260504171517 | 55 | 0.0 | 3.0 | 0.00 | 0.00 | 0.00 | 82 | 1017.0 | |
| 20260504170517 | 54 | 0.0 | 2.0 | 0.00 | 0.00 | 0.00 | 81 | 1017.2 | |
| 20260504150517 | 54 | 45 | 1.0 | 3.0 | 0.00 | 0.00 | 0.00 | 82 | 1017.2 |
| 20260504140516 | 55 | 0.0 | 3.0 | 0.00 | 0.00 | 0.00 | 81 | 1017.4 | |
| 20260504130516 | 54 | 45 | 3.0 | 6.0 | 0.00 | 0.00 | 0.00 | 84 | 1017.6 |
| 20260504110516 | 54 | 45 | 2.0 | 8.0 | 0.00 | 0.00 | 0.00 | 81 | 1017.6 |
| 20260504100516 | 54 | 68 | 3.0 | 8.0 | 0.00 | 0.00 | 0.00 | 81 | 1017.3 |
| 20260504081516 | 51 | 45 | 3.0 | 8.0 | 0.00 | 0.00 | 0.00 | 92 | 1016.8 |
| 20260504080517 | 50 | 45 | 3.0 | 6.0 | 0.00 | 0.00 | 0.00 | 93 | 1016.8 |
| 20260504050515 | 49 | 45 | 5.0 | 9.0 | 0.00 | 0.00 | 0.00 | 95 | 1015.2 |
| 20260504045536 | 49 | 45 | 5.0 | 9.0 | 0.00 | 0.00 | 0.00 | 95 | 1015.1 |
| 20260504044515 | 49 | 45 | 3.0 | 6.0 | 0.00 | 0.00 | 0.00 | 95 | 1015.1 |
| 20260504043515 | 50 | 45 | 3.0 | 5.0 | 0.00 | 0.00 | 0.00 | 95 | 1015.1 |
| 20260504042535 | 50 | 45 | 3.0 | 4.0 | 0.00 | 0.00 | 0.00 | 95 | 1015.1 |
| 20260504041535 | 50 | 45 | 3.0 | 4.0 | 0.00 | 0.00 | 0.00 | 95 | 1015.1 |
| 20260504040515 | 50 | 45 | 2.0 | 5.0 | 0.00 | 0.00 | 0.00 | 95 | 1015.1 |
| 20260504035515 | 50 | 45 | 2.0 | 7.0 | 0.00 | 0.00 | 0.00 | 95 | 1014.9 |
| 20260504034515 | 50 | 45 | 3.0 | 5.0 | 0.00 | 0.00 | 0.00 | 95 | 1014.8 |
| 20260504033537 | 50 | 45 | 3.0 | 7.0 | 0.00 | 0.00 | 0.00 | 94 | 1014.8 |
| 20260504032517 | 50 | 45 | 4.0 | 9.0 | 0.00 | 0.00 | 0.00 | 94 | 1014.8 |
| 20260504031517 | 50 | 45 | 3.0 | 6.0 | 0.00 | 0.00 | 0.00 | 94 | 1014.9 |
| 20260504030517 | 49 | 45 | 4.0 | 9.0 | 0.00 | 0.00 | 0.00 | 94 | 1014.8 |
| 20260504025517 | 49 | 45 | 3.0 | 5.0 | 0.00 | 0.00 | 0.00 | 94 | 1014.7 |
| 20260504024557 | 50 | 45 | 3.0 | 5.0 | 0.00 | 0.00 | 0.00 | 93 | 1014.7 |
| 20260504023517 | 50 | 45 | 2.0 | 4.0 | 0.00 | 0.00 | 0.00 | 93 | 1014.7 |
| 20260504022517 | 49 | 68 | 3.0 | 6.0 | 0.00 | 0.00 | 0.00 | 93 | 1014.6 |
| 20260504021517 | 49 | 45 | 3.0 | 5.0 | 0.00 | 0.00 | 0.00 | 93 | 1014.5 |
| 20260504020517 | 49 | 45 | 3.0 | 9.0 | 0.00 | 0.00 | 0.00 | 93 | 1014.6 |
| 20260504015517 | 49 | 45 | 2.0 | 4.0 | 0.00 | 0.00 | 0.00 | 93 | 1014.6 |
| 20260504014517 | 50 | 45 | 2.0 | 6.0 | 0.00 | 0.00 | 0.00 | 93 | 1014.6 |
| 20260504013517 | 50 | 45 | 2.0 | 4.0 | 0.00 | 0.00 | 0.00 | 93 | 1014.7 |
| 20260504012517 | 50 | 45 | 1.0 | 3.0 | 0.00 | 0.00 | 0.00 | 93 | 1014.8 |
| 20260504011517 | 50 | 45 | 2.0 | 5.0 | 0.00 | 0.00 | 0.00 | 93 | 1014.7 |
| 20260504010517 | 50 | 45 | 3.0 | 5.0 | 0.00 | 0.00 | 0.00 | 93 | 1014.7 |
| 20260504005517 | 50 | 45 | 2.0 | 3.0 | 0.00 | 0.00 | 0.00 | 93 | 1014.6 |
| 20260504004517 | 50 | 45 | 2.0 | 6.0 | 0.00 | 0.00 | 0.00 | 92 | 1014.5 |
| 20260504003537 | 50 | 45 | 2.0 | 5.0 | 0.00 | 0.00 | 0.00 | 92 | 1014.4 |
| 20260504002517 | 50 | 45 | 4.0 | 9.0 | 0.00 | 0.00 | 0.00 | 92 | 1014.4 |
| 20260504001537 | 50 | 45 | 2.0 | 6.0 | 0.00 | 0.00 | 0.00 | 92 | 1014.4 |
| 20260504000517 | 50 | 45 | 3.0 | 7.0 | 0.00 | 0.00 | 0.00 | 92 | 1014.3 |
| 20260503235517 | 50 | 45 | 4.0 | 7.0 | 0.00 | 0.01 | 0.00 | 92 | 1014.4 |
| 20260503234517 | 51 | 45 | 4.0 | 9.0 | 0.00 | 0.01 | 0.00 | 92 | 1014.3 |
| 20260503233516 | 51 | 45 | 5.0 | 9.0 | 0.00 | 0.01 | 0.00 | 92 | 1014.3 |
| 20260503232516 | 51 | 45 | 4.0 | 7.0 | 0.00 | 0.01 | 0.00 | 92 | 1014.4 |
| 20260503231517 | 51 | 45 | 4.0 | 7.0 | 0.00 | 0.01 | 0.00 | 92 | 1014.3 |
| 20260503230517 | 51 | 45 | 5.0 | 10.0 | 0.00 | 0.01 | 0.00 | 92 | 1014.3 |
| 20260503225517 | 51 | 45 | 4.0 | 9.0 | 0.00 | 0.06 | 0.01 | 92 | 1014.1 |
| 20260503224517 | 51 | 45 | 4.0 | 7.0 | 0.00 | 0.06 | 0.01 | 92 | 1014.1 |